contact:dominique.lefevre@mio.osupytheas.fr, maurice.libes@osupytheas.fr, didier.mallarino@osupytheas.fr
Project:EMSO http://www.emso-fr.org/EMSO-France
Depth: 2436.0 m
Title:EMSO Ligure Ouest : Data MII capteur AQUADOPP
Date,Latitude,Longitude,X_East,Y_North,Z_Up,Amplitude_X,Amplitude_Y,Amplitude_Z,Batterie,SoundSpeed,Heading,Pitch,Roll,Pressure,TIS,Speed,Direction
, degrees North, degrees East, m.s-1, m.s-1,m.s-1, 1, 1, 1, Volt, m.s-1, degree, degree, degree, dbar, degree_C, m.s-1, degree
2022-08-01T00:04:03,42.805,6.029,-0.051,-0.013,-0.018,101.0,101.0,100.0,13.4,1505.2,329.2,-0.8,1.8,2471.037,13.28,0.052,255.7
2022-08-01T00:07:03,42.805,6.029,-0.039,-0.021,-0.039,101.0,102.0,100.0,13.4,1505.2,333.4,-0.8,1.8,2471.006,13.28,0.044,241.7
2022-08-01T00:10:03,42.805,6.029,-0.047,-0.022,-0.023,101.0,101.0,100.0,13.4,1505.2,324.4,-0.7,1.8,2471.04,13.28,0.051,244.9
2022-08-01T00:13:03,42.805,6.029,-0.042,-0.026,-0.038,101.0,101.0,101.0,13.4,1505.2,323.9,-0.8,1.8,2471.009,13.28,0.049,238.2
2022-08-01T00:16:03,42.805,6.029,-0.045,-0.014,-0.008,101.0,101.0,101.0,13.4,1505.2,329.3,-0.8,1.8,2471.016,13.28,0.047,252.7
2022-08-01T00:19:03,42.805,6.029,-0.044,-0.015,-0.019,101.0,101.0,100.0,13.3,1505.2,320.7,-0.7,1.8,2470.996,13.28,0.046,251.2
2022-08-01T00:22:03,42.805,6.029,-0.031,-0.023,-0.038,101.0,101.0,102.0,13.4,1505.2,325.8,-0.8,1.8,2471.004,13.28,0.038,233.4
2022-08-01T00:25:03,42.805,6.029,-0.041,-0.023,-0.025,101.0,101.0,100.0,13.3,1505.2,326.6,-0.8,1.8,2471.016,13.28,0.047,240.7
2022-08-01T00:28:03,42.805,6.029,-0.024,-0.025,-0.019,100.0,103.0,101.0,13.4,1505.2,326.4,-0.8,1.8,2471.034,13.28,0.034,223.8
2022-08-01T00:31:03,42.805,6.029,-0.057,-0.033,-0.015,103.0,100.0,101.0,13.4,1505.2,328.3,-0.8,1.8,2471.003,13.28,0.065,239.9
2022-08-01T00:34:03,42.805,6.029,-0.021,-0.012,-0.039,101.0,101.0,101.0,13.3,1505.2,323.0,-0.7,1.8,2470.959,13.28,0.024,240.3
2022-08-01T00:37:03,42.805,6.029,-0.021,-0.032,-0.011,102.0,101.0,100.0,13.3,1505.2,331.7,-0.8,1.8,2470.972,13.28,0.038,213.3
2022-08-01T00:40:03,42.805,6.029,-0.045,-0.015,-0.018,102.0,102.0,100.0,13.4,1505.2,331.9,-0.7,1.8,2471.004,13.28,0.047,251.6
2022-08-01T00:43:03,42.805,6.029,-0.027,-0.034,-0.048,101.0,102.0,101.0,13.4,1505.2,324.0,-0.8,1.8,2470.977,13.28,0.043,218.5
2022-08-01T00:46:03,42.805,6.029,-0.013,-0.021,-0.006,102.0,101.0,101.0,13.3,1505.2,326.9,-0.7,1.9,2470.979,13.28,0.024,211.8
2022-08-01T00:49:03,42.805,6.029,-0.017,-0.029,-0.005,103.0,99.0,100.0,13.4,1505.2,319.9,-0.8,1.8,2470.981,13.28,0.033,210.4
2022-08-01T00:52:03,42.805,6.029,-0.029,-0.026,-0.035,101.0,102.0,101.0,13.4,1505.2,330.0,-0.7,1.8,2470.986,13.28,0.038,228.1
2022-08-01T00:55:03,42.805,6.029,-0.035,-0.034,-0.007,101.0,100.0,101.0,13.4,1505.2,324.5,-0.8,1.8,2470.996,13.28,0.048,225.8
2022-08-01T00:58:03,42.805,6.029,-0.037,-0.013,0.002,100.0,101.0,101.0,13.4,1505.2,319.8,-0.7,1.8,2470.945,13.28,0.039,250.6
2022-08-01T01:04:03,42.805,6.029,-0.022,-0.01,0.0,102.0,102.0,102.0,13.4,1505.2,322.8,-0.8,1.8,2471.032,13.28,0.024,245.6
2022-08-01T01:07:03,42.805,6.029,-0.003,-0.033,-0.012,102.0,102.0,101.0,13.3,1505.2,327.0,-0.8,1.8,2471.029,13.28,0.033,185.2
2022-08-01T01:10:03,42.805,6.029,-0.043,-0.02,-0.021,101.0,101.0,100.0,13.4,1505.2,325.8,-0.8,1.8,2471.021,13.28,0.047,245.1
2022-08-01T01:13:03,42.805,6.029,-0.022,-0.019,-0.056,104.0,101.0,99.0,13.4,1505.2,329.0,-0.7,1.9,2471.01,13.28,0.029,229.2
2022-08-01T01:16:03,42.805,6.029,-0.036,-0.011,-0.004,102.0,101.0,100.0,13.4,1505.2,321.4,-0.8,1.8,2470.988,13.28,0.037,253.0
2022-08-01T01:19:03,42.805,6.029,-0.034,-0.026,0.0,102.0,102.0,100.0,13.4,1505.2,331.8,-0.8,1.8,2471.012,13.28,0.042,232.6
2022-08-01T01:22:03,42.805,6.029,-0.014,-0.034,-0.015,102.0,102.0,101.0,13.4,1505.2,320.6,-0.8,1.8,2471.001,13.28,0.036,202.4
2022-08-01T01:25:03,42.805,6.029,-0.02,-0.021,-0.039,101.0,102.0,101.0,13.3,1505.2,332.6,-0.7,1.8,2470.941,13.28,0.028,223.6
2022-08-01T01:28:03,42.805,6.029,-0.029,0.003,-0.009,101.0,103.0,100.0,13.3,1505.2,333.4,-0.7,1.8,2470.976,13.28,0.029,275.9
2022-08-01T01:31:03,42.805,6.029,-0.025,-0.021,-0.013,103.0,101.0,100.0,13.4,1505.2,331.2,-0.8,1.8,2470.946,13.28,0.032,230.0
2022-08-01T01:34:03,42.805,6.029,-0.039,-0.03,-0.041,103.0,102.0,100.0,13.4,1505.2,324.7,-0.8,1.8,2470.939,13.28,0.049,232.4
2022-08-01T01:37:03,42.805,6.029,-0.043,-0.013,-0.036,103.0,102.0,99.0,13.4,1505.2,329.5,-0.7,1.8,2470.946,13.28,0.044,253.2
2022-08-01T01:40:03,42.805,6.029,-0.033,-0.027,-0.067,102.0,102.0,101.0,13.4,1505.2,331.5,-0.8,1.8,2470.952,13.28,0.042,230.7
2022-08-01T01:43:03,42.805,6.029,-0.037,-0.01,-0.018,102.0,101.0,101.0,13.3,1505.2,326.5,-0.7,1.8,2470.962,13.28,0.038,254.9
2022-08-01T01:46:03,42.805,6.029,-0.035,-0.025,-0.02,102.0,102.0,100.0,13.3,1505.2,320.0,-0.8,1.9,2470.969,13.28,0.043,234.5
2022-08-01T01:49:03,42.805,6.029,-0.037,-0.023,-0.036,102.0,102.0,101.0,13.4,1505.2,326.4,-0.8,1.8,2470.959,13.28,0.043,238.1
2022-08-01T01:52:03,42.805,6.029,-0.024,-0.026,-0.031,102.0,102.0,100.0,13.3,1505.2,324.9,-0.8,1.9,2470.902,13.28,0.035,222.7
2022-08-01T01:55:03,42.805,6.029,-0.032,0.0,-0.011,102.0,102.0,101.0,13.4,1505.2,319.5,-0.8,1.8,2470.944,13.28,0.032,270.0
2022-08-01T01:58:03,42.805,6.029,-0.023,-0.025,-0.023,101.0,103.0,101.0,13.4,1505.2,325.8,-0.8,1.8,2470.937,13.28,0.033,222.6
2022-08-01T02:04:03,42.805,6.029,-0.025,-0.034,-0.031,103.0,102.0,101.0,13.3,1505.2,326.1,-0.8,1.8,2470.973,13.28,0.042,216.3
2022-08-01T02:07:03,42.805,6.029,-0.048,-0.016,-0.035,102.0,104.0,100.0,13.4,1505.2,323.3,-0.7,1.8,2470.949,13.28,0.05,251.6
2022-08-01T02:10:03,42.805,6.029,-0.023,-0.026,0.0,102.0,101.0,101.0,13.3,1505.2,323.1,-0.8,1.8,2470.937,13.28,0.034,221.5
2022-08-01T02:13:03,42.805,6.029,-0.061,-0.001,-0.008,103.0,103.0,100.0,13.4,1505.2,325.5,-0.8,1.8,2470.965,13.28,0.061,269.1
2022-08-01T02:16:03,42.805,6.029,-0.015,-0.027,-0.005,102.0,100.0,102.0,13.4,1505.2,325.9,-0.7,1.8,2470.923,13.28,0.03,209.1
2022-08-01T02:19:03,42.805,6.029,-0.049,-0.018,-0.027,102.0,103.0,101.0,13.4,1505.2,323.7,-0.8,1.8,2470.949,13.28,0.052,249.8
2022-08-01T02:22:03,42.805,6.029,-0.035,-0.021,-0.028,102.0,102.0,101.0,13.4,1505.2,328.9,-0.7,1.8,2470.918,13.28,0.04,239.0
2022-08-01T02:25:03,42.805,6.029,-0.035,-0.015,-0.02,102.0,103.0,100.0,13.4,1505.2,326.0,-0.8,1.8,2470.923,13.28,0.038,246.8
2022-08-01T02:28:03,42.805,6.029,-0.035,-0.02,-0.017,102.0,104.0,103.0,13.4,1505.2,324.5,-0.8,1.8,2470.921,13.28,0.04,240.3
2022-08-01T02:31:03,42.805,6.029,-0.017,-0.039,-0.007,102.0,101.0,101.0,13.3,1505.2,323.8,-0.7,1.8,2470.889,13.28,0.042,203.5
2022-08-01T02:34:03,42.805,6.029,-0.023,-0.025,-0.006,104.0,102.0,100.0,13.4,1505.2,326.1,-0.8,1.9,2470.89,13.28,0.033,222.6
2022-08-01T02:37:03,42.805,6.029,-0.041,-0.023,-0.02,104.0,101.0,101.0,13.3,1505.2,329.6,-0.8,1.9,2470.914,13.28,0.047,240.7
2022-08-01T02:40:03,42.805,6.029,-0.032,-0.03,-0.028,102.0,102.0,101.0,13.3,1505.2,322.9,-0.8,1.8,2470.916,13.28,0.043,226.9
2022-08-01T02:43:03,42.805,6.029,-0.051,-0.021,-0.033,103.0,103.0,101.0,13.4,1505.2,332.1,-0.8,1.8,2470.93,13.28,0.055,247.6
2022-08-01T02:46:03,42.805,6.029,-0.03,-0.028,-0.026,102.0,102.0,101.0,13.4,1505.2,329.5,-0.8,1.8,2470.894,13.28,0.041,227.0
2022-08-01T02:49:03,42.805,6.029,-0.045,0.005,-0.001,104.0,100.0,100.0,13.3,1505.2,332.9,-0.8,1.8,2470.897,13.28,0.045,276.3
2022-08-01T02:52:03,42.805,6.029,-0.027,-0.015,-0.021,104.0,102.0,101.0,13.3,1505.2,334.1,-0.7,1.8,2470.918,13.28,0.03,240.9
2022-08-01T02:55:03,42.805,6.029,-0.037,-0.021,-0.043,102.0,103.0,101.0,13.4,1505.2,332.1,-0.8,1.8,2470.928,13.28,0.042,240.4
2022-08-01T02:58:03,42.805,6.029,-0.029,-0.028,-0.008,103.0,102.0,101.0,13.3,1505.2,327.3,-0.8,1.8,2470.92,13.28,0.04,226.0
2022-08-01T03:04:03,42.805,6.029,-0.023,-0.019,-0.007,102.0,103.0,101.0,13.3,1505.2,319.2,-0.7,1.8,2470.957,13.28,0.029,230.4
2022-08-01T03:07:03,42.805,6.029,-0.041,-0.022,-0.012,102.0,102.0,101.0,13.3,1505.2,324.7,-0.8,1.8,2470.938,13.28,0.046,241.8
2022-08-01T03:10:03,42.805,6.029,-0.012,-0.041,-0.031,103.0,101.0,102.0,13.4,1505.2,330.7,-0.7,1.8,2470.931,13.28,0.042,196.3
2022-08-01T03:13:03,42.805,6.029,-0.015,-0.01,-0.021,103.0,103.0,101.0,13.4,1505.2,333.1,-0.8,1.8,2470.928,13.28,0.018,236.3
2022-08-01T03:16:03,42.805,6.029,-0.029,-0.031,-0.029,102.0,103.0,100.0,13.4,1505.2,327.4,-0.7,1.8,2470.893,13.28,0.042,223.1
2022-08-01T03:19:03,42.805,6.029,-0.046,-0.015,-0.02,103.0,102.0,101.0,13.4,1505.2,328.9,-0.8,1.8,2470.916,13.28,0.048,251.9
2022-08-01T03:22:03,42.805,6.029,-0.041,-0.017,-0.028,103.0,102.0,101.0,13.4,1505.2,322.5,-0.7,1.8,2470.881,13.28,0.044,247.5
2022-08-01T03:25:03,42.805,6.029,-0.027,-0.013,-0.041,104.0,102.0,101.0,13.3,1505.2,326.4,-0.8,1.8,2470.925,13.28,0.029,244.3
2022-08-01T03:28:03,42.805,6.029,-0.036,-0.035,-0.039,101.0,103.0,101.0,13.4,1505.2,322.6,-0.7,1.8,2470.919,13.28,0.05,225.8
2022-08-01T03:31:03,42.805,6.029,-0.034,-0.022,-0.031,103.0,101.0,102.0,13.4,1505.2,327.0,-0.8,1.8,2470.923,13.28,0.04,237.1
2022-08-01T03:34:03,42.805,6.029,-0.022,-0.022,-0.027,102.0,102.0,102.0,13.4,1505.2,328.0,-0.7,1.8,2470.885,13.28,0.031,225.0
2022-08-01T03:37:03,42.805,6.029,-0.03,-0.025,-0.033,102.0,103.0,101.0,13.4,1505.2,327.2,-0.8,1.8,2470.883,13.28,0.039,230.2
2022-08-01T03:40:03,42.805,6.029,-0.029,-0.031,-0.063,102.0,103.0,100.0,13.4,1505.2,329.1,-0.8,1.8,2470.901,13.28,0.042,223.1
2022-08-01T03:43:03,42.805,6.029,-0.043,-0.024,-0.02,103.0,103.0,101.0,13.4,1505.2,322.2,-0.8,1.8,2470.902,13.28,0.049,240.8
2022-08-01T03:46:03,42.805,6.029,-0.015,-0.028,-0.03,104.0,101.0,101.0,13.4,1505.2,319.3,-0.7,1.8,2470.886,13.28,0.031,208.2
2022-08-01T03:49:03,42.805,6.029,-0.019,-0.018,-0.037,103.0,103.0,101.0,13.3,1505.2,325.8,-0.8,1.8,2470.91,13.28,0.026,226.5
2022-08-01T03:52:03,42.805,6.029,-0.025,-0.034,-0.03,103.0,102.0,101.0,13.4,1505.2,325.6,-0.8,1.8,2470.879,13.28,0.042,216.3
2022-08-01T03:55:03,42.805,6.029,-0.068,-0.032,-0.042,102.0,103.0,100.0,13.4,1505.2,328.5,-0.8,1.8,2470.899,13.28,0.075,244.8
2022-08-01T03:58:03,42.805,6.029,-0.036,-0.034,-0.005,102.0,103.0,100.0,13.4,1505.2,333.1,-0.8,1.8,2470.895,13.28,0.049,226.6
2022-08-01T04:04:03,42.805,6.029,-0.042,-0.018,0.004,102.0,103.0,101.0,13.4,1505.2,325.9,-0.7,1.8,2470.895,13.28,0.045,246.8
2022-08-01T04:07:03,42.805,6.029,-0.035,-0.019,-0.005,101.0,103.0,101.0,13.4,1505.2,326.0,-0.8,1.8,2470.921,13.28,0.039,241.5
2022-08-01T04:10:03,42.805,6.029,-0.035,-0.022,-0.014,103.0,102.0,102.0,13.4,1505.2,324.5,-0.8,1.8,2470.972,13.28,0.041,237.8
2022-08-01T04:13:03,42.805,6.029,-0.035,-0.01,0.003,103.0,102.0,101.0,13.3,1505.2,323.0,-0.8,1.8,2470.888,13.28,0.036,254.1
2022-08-01T04:16:03,42.805,6.029,-0.036,-0.016,-0.013,103.0,102.0,101.0,13.4,1505.2,331.0,-0.8,1.8,2470.924,13.28,0.039,246.0
2022-08-01T04:19:03,42.805,6.029,-0.037,-0.004,0.009,103.0,101.0,101.0,13.4,1505.2,326.3,-0.8,1.8,2470.896,13.28,0.037,263.8
2022-08-01T04:22:03,42.805,6.029,-0.042,-0.02,-0.05,102.0,101.0,101.0,13.4,1505.2,323.6,-0.7,1.8,2470.93,13.28,0.046,244.5
2022-08-01T04:25:03,42.805,6.029,-0.032,-0.017,-0.016,103.0,102.0,101.0,13.3,1505.2,322.9,-0.8,1.8,2470.892,13.28,0.036,242.0
2022-08-01T04:28:03,42.805,6.029,-0.04,-0.022,-0.019,103.0,102.0,101.0,13.3,1505.2,327.7,-0.8,1.8,2470.888,13.28,0.045,241.2
2022-08-01T04:31:03,42.805,6.029,-0.037,-0.029,-0.022,103.0,103.0,101.0,13.4,1505.2,320.5,-0.7,1.8,2470.872,13.29,0.047,231.9
2022-08-01T04:34:03,42.805,6.029,-0.033,-0.016,-0.028,102.0,102.0,101.0,13.4,1505.2,326.0,-0.8,1.8,2470.899,13.28,0.036,244.1
2022-08-01T04:37:03,42.805,6.029,-0.041,-0.018,-0.019,103.0,101.0,101.0,13.4,1505.2,331.9,-0.8,1.8,2470.906,13.28,0.044,246.3
2022-08-01T04:40:03,42.805,6.029,-0.033,-0.032,-0.021,102.0,101.0,102.0,13.4,1505.2,319.6,-0.7,1.8,2470.87,13.28,0.045,225.9
2022-08-01T04:43:03,42.805,6.029,-0.032,-0.016,-0.035,101.0,104.0,101.0,13.3,1505.2,326.4,-0.8,1.8,2470.912,13.28,0.035,243.4
2022-08-01T04:46:03,42.805,6.029,-0.044,-0.053,-0.042,102.0,102.0,101.0,13.3,1505.2,330.5,-0.8,1.8,2470.932,13.28,0.068,219.7
2022-08-01T04:49:03,42.805,6.029,-0.023,-0.006,-0.008,101.0,103.0,101.0,13.4,1505.2,332.2,-0.7,1.8,2470.9,13.28,0.023,255.4
2022-08-01T04:52:03,42.805,6.029,-0.03,-0.042,-0.046,102.0,104.0,101.0,13.4,1505.2,326.4,-0.7,1.8,2470.906,13.28,0.051,215.5
2022-08-01T04:55:03,42.805,6.029,-0.015,-0.036,-0.019,102.0,102.0,101.0,13.4,1505.2,326.6,-0.7,1.8,2470.907,13.28,0.039,202.6
2022-08-01T04:58:03,42.805,6.029,-0.049,-0.013,-0.026,103.0,102.0,101.0,13.4,1505.2,319.2,-0.7,1.8,2470.914,13.28,0.05,255.1
2022-08-01T05:04:03,42.805,6.029,-0.029,-0.025,-0.017,102.0,103.0,101.0,13.3,1505.2,319.8,-0.7,1.8,2470.942,13.28,0.038,229.2
2022-08-01T05:07:03,42.805,6.029,-0.034,-0.042,-0.038,102.0,101.0,101.0,13.4,1505.2,323.9,-0.8,1.8,2470.942,13.28,0.054,219.0
2022-08-01T05:10:03,42.805,6.029,-0.036,-0.012,-0.01,103.0,102.0,101.0,13.3,1505.2,320.9,-0.8,1.8,2470.93,13.28,0.037,251.6
2022-08-01T05:13:03,42.805,6.029,-0.052,-0.032,-0.034,103.0,102.0,100.0,13.3,1505.2,325.1,-0.8,1.8,2470.906,13.28,0.061,238.4
2022-08-01T05:16:03,42.805,6.029,-0.007,-0.044,-0.039,102.0,102.0,101.0,13.4,1505.2,324.1,-0.7,1.8,2470.893,13.28,0.044,189.0
2022-08-01T05:19:03,42.805,6.029,-0.042,-0.024,-0.025,101.0,103.0,101.0,13.4,1505.2,326.1,-0.7,1.8,2470.913,13.28,0.048,240.3
2022-08-01T05:22:03,42.805,6.029,-0.048,-0.022,-0.017,102.0,102.0,101.0,13.4,1505.2,318.6,-0.8,1.8,2470.923,13.28,0.052,245.4
2022-08-01T05:25:03,42.805,6.029,-0.033,-0.018,-0.013,103.0,103.0,101.0,13.4,1505.2,329.9,-0.8,1.8,2470.93,13.28,0.037,241.4
2022-08-01T05:28:03,42.805,6.029,-0.033,-0.033,-0.015,102.0,102.0,101.0,13.4,1505.2,323.2,-0.7,1.8,2470.875,13.28,0.046,225.0
2022-08-01T05:31:03,42.805,6.029,-0.013,-0.029,-0.016,103.0,104.0,99.0,13.4,1505.2,318.2,-0.8,1.8,2470.926,13.28,0.031,204.1
2022-08-01T05:34:03,42.805,6.029,-0.017,-0.015,-0.039,103.0,102.0,100.0,13.4,1505.2,323.3,-0.8,1.8,2470.861,13.28,0.022,228.6
2022-08-01T05:37:03,42.805,6.029,-0.021,-0.012,-0.003,103.0,104.0,100.0,13.4,1505.2,332.6,-0.8,1.8,2470.908,13.28,0.024,240.3
2022-08-01T05:40:03,42.805,6.029,-0.039,-0.017,-0.027,103.0,102.0,100.0,13.3,1505.2,323.4,-0.7,1.8,2470.927,13.28,0.042,246.5
2022-08-01T05:43:03,42.805,6.029,-0.007,-0.032,-0.021,103.0,103.0,101.0,13.4,1505.2,318.2,-0.8,1.8,2470.896,13.28,0.032,192.3
2022-08-01T05:46:03,42.805,6.029,-0.025,-0.002,-0.031,103.0,102.0,101.0,13.4,1505.2,320.1,-0.8,1.8,2470.915,13.28,0.025,265.4
2022-08-01T05:49:03,42.805,6.029,-0.019,-0.034,-0.014,103.0,101.0,101.0,13.3,1505.2,325.3,-0.8,1.8,2470.919,13.28,0.038,209.2
2022-08-01T05:52:03,42.805,6.029,0.001,-0.037,-0.041,102.0,104.0,100.0,13.4,1505.2,323.8,-0.7,1.8,2470.914,13.28,0.037,178.5
2022-08-01T05:55:03,42.805,6.029,-0.011,-0.04,-0.027,102.0,102.0,101.0,13.3,1505.2,321.9,-0.8,1.8,2470.916,13.29,0.041,195.4
2022-08-01T05:58:03,42.805,6.029,-0.037,-0.026,-0.007,103.0,101.0,101.0,13.3,1505.2,329.3,-0.7,1.8,2470.9,13.28,0.045,234.9
2022-08-01T06:04:03,42.805,6.029,-0.037,-0.02,-0.027,102.0,102.0,101.0,13.4,1505.2,325.5,-0.7,1.8,2471.01,13.28,0.042,241.6
2022-08-01T06:07:03,42.805,6.029,-0.016,-0.036,0.0,103.0,101.0,101.0,13.4,1505.2,318.7,-0.8,1.8,2470.964,13.28,0.039,204.0
2022-08-01T06:10:03,42.805,6.029,-0.046,-0.009,-0.014,102.0,102.0,101.0,13.4,1505.2,333.4,-0.8,1.8,2470.953,13.28,0.046,258.9
2022-08-01T06:13:03,42.805,6.029,-0.034,-0.02,-0.043,103.0,102.0,101.0,13.4,1505.2,331.3,-0.8,1.8,2470.941,13.28,0.039,239.5
2022-08-01T06:16:03,42.805,6.029,-0.016,-0.021,-0.009,103.0,102.0,101.0,13.4,1505.2,324.2,-0.8,1.8,2470.929,13.28,0.026,217.3
2022-08-01T06:19:03,42.805,6.029,-0.051,-0.014,-0.025,102.0,103.0,100.0,13.4,1505.2,329.3,-0.7,1.8,2470.94,13.28,0.052,254.7
2022-08-01T06:22:03,42.805,6.029,-0.036,-0.028,-0.025,104.0,100.0,101.0,13.4,1505.2,331.2,-0.8,1.8,2470.962,13.28,0.045,232.1
2022-08-01T06:25:03,42.805,6.029,-0.029,-0.032,-0.033,102.0,103.0,101.0,13.4,1505.2,320.7,-0.7,1.8,2470.959,13.28,0.043,222.2
2022-08-01T06:28:03,42.805,6.029,-0.036,-0.017,-0.026,103.0,101.0,102.0,13.4,1505.2,330.0,-0.8,1.8,2470.934,13.28,0.039,244.7
2022-08-01T06:31:03,42.805,6.029,-0.033,-0.003,0.003,102.0,101.0,101.0,13.4,1505.2,332.6,-0.7,1.8,2470.958,13.28,0.033,264.8
2022-08-01T06:34:03,42.805,6.029,-0.018,-0.023,-0.033,103.0,101.0,100.0,13.4,1505.2,323.6,-0.7,1.8,2470.919,13.28,0.029,218.0
2022-08-01T06:37:03,42.805,6.029,-0.03,-0.026,-0.028,102.0,103.0,100.0,13.4,1505.2,325.6,-0.7,1.8,2470.986,13.28,0.039,229.1
2022-08-01T06:40:03,42.805,6.029,-0.043,-0.028,-0.034,102.0,102.0,102.0,13.4,1505.2,328.5,-0.8,1.8,2470.909,13.28,0.051,236.9
2022-08-01T06:43:03,42.805,6.029,-0.031,-0.03,-0.027,102.0,102.0,101.0,13.4,1505.2,319.8,-0.8,1.8,2470.969,13.28,0.043,225.9
2022-08-01T06:46:03,42.805,6.029,-0.007,-0.052,-0.04,103.0,102.0,101.0,13.4,1505.2,322.3,-0.8,1.8,2470.939,13.28,0.052,187.7
2022-08-01T06:49:03,42.805,6.029,-0.04,-0.024,-0.01,104.0,103.0,100.0,13.3,1505.2,327.4,-0.8,1.8,2470.993,13.28,0.046,239.0
2022-08-01T06:52:03,42.805,6.029,-0.041,-0.003,-0.017,103.0,103.0,100.0,13.4,1505.2,322.5,-0.8,1.8,2470.951,13.28,0.041,265.8
2022-08-01T06:55:03,42.805,6.029,-0.048,-0.021,-0.038,103.0,102.0,101.0,13.4,1505.2,323.4,-0.7,1.9,2470.958,13.28,0.052,246.4
2022-08-01T06:58:03,42.805,6.029,-0.029,-0.02,-0.041,103.0,103.0,101.0,13.3,1505.2,329.0,-0.8,1.8,2470.951,13.28,0.035,235.4
2022-08-01T07:04:03,42.805,6.029,-0.032,-0.029,-0.018,102.0,102.0,101.0,13.4,1505.2,322.3,-0.8,1.8,2471.011,13.28,0.043,227.8
2022-08-01T07:07:03,42.805,6.029,-0.023,-0.022,-0.025,102.0,103.0,100.0,13.4,1505.2,329.4,-0.7,1.8,2471.035,13.28,0.031,226.3
2022-08-01T07:10:03,42.805,6.029,-0.024,-0.052,-0.015,102.0,102.0,100.0,13.4,1505.2,318.8,-0.8,1.8,2471.001,13.28,0.057,204.8
2022-08-01T07:13:03,42.805,6.029,-0.027,-0.033,-0.054,102.0,102.0,101.0,13.4,1505.2,320.3,-0.8,1.8,2470.986,13.28,0.042,219.3
2022-08-01T07:16:03,42.805,6.029,-0.024,-0.019,-0.028,102.0,102.0,101.0,13.3,1505.2,329.5,-0.8,1.8,2471.004,13.28,0.03,231.6
2022-08-01T07:19:03,42.805,6.029,-0.023,-0.023,-0.027,103.0,102.0,101.0,13.4,1505.2,324.7,-0.7,1.8,2470.95,13.28,0.032,225.0
2022-08-01T07:22:03,42.805,6.029,-0.019,-0.031,-0.011,104.0,102.0,100.0,13.3,1505.2,320.6,-0.7,1.8,2471.009,13.28,0.036,211.5
2022-08-01T07:25:03,42.805,6.029,-0.018,-0.038,-0.042,103.0,102.0,101.0,13.4,1505.2,327.6,-0.7,1.8,2470.976,13.28,0.042,205.3
2022-08-01T07:28:03,42.805,6.029,-0.012,-0.028,-0.038,102.0,102.0,102.0,13.3,1505.2,324.7,-0.7,1.8,2471.003,13.28,0.03,203.2
2022-08-01T07:31:03,42.805,6.029,-0.015,-0.062,-0.063,101.0,102.0,102.0,13.4,1505.2,321.3,-0.8,1.8,2470.988,13.28,0.063,193.6
2022-08-01T07:34:03,42.805,6.029,-0.018,-0.028,-0.023,102.0,102.0,101.0,13.4,1505.2,322.7,-0.8,1.8,2470.986,13.28,0.033,212.7
2022-08-01T07:37:03,42.805,6.029,-0.031,-0.017,-0.008,102.0,102.0,101.0,13.4,1505.2,327.8,-0.8,1.8,2470.95,13.28,0.035,241.3
2022-08-01T07:40:03,42.805,6.029,-0.029,-0.038,-0.037,102.0,102.0,101.0,13.3,1505.2,318.8,-0.7,1.8,2470.985,13.28,0.047,217.3
2022-08-01T07:43:03,42.805,6.029,-0.014,-0.026,-0.016,103.0,101.0,101.0,13.4,1505.2,326.4,-0.7,1.8,2470.986,13.28,0.029,208.3
2022-08-01T07:46:03,42.805,6.029,-0.024,-0.029,-0.018,103.0,101.0,101.0,13.4,1505.2,327.9,-0.7,1.8,2471.02,13.28,0.037,219.6
2022-08-01T07:49:03,42.805,6.029,-0.03,-0.014,-0.016,103.0,102.0,101.0,13.3,1505.2,322.4,-0.8,1.8,2470.998,13.28,0.033,245.0
2022-08-01T07:52:03,42.805,6.029,-0.044,-0.03,-0.022,103.0,102.0,100.0,13.3,1505.2,325.4,-0.8,1.8,2470.98,13.28,0.053,235.7
2022-08-01T07:55:03,42.805,6.029,-0.047,-0.015,-0.027,102.0,101.0,101.0,13.4,1505.2,330.2,-0.7,1.8,2471.02,13.28,0.049,252.3
2022-08-01T07:58:03,42.805,6.029,-0.024,-0.013,-0.02,103.0,104.0,100.0,13.3,1505.2,332.4,-0.7,1.8,2470.995,13.29,0.027,241.6
2022-08-01T08:04:03,42.805,6.029,-0.012,0.0,-0.029,103.0,102.0,101.0,13.4,1505.2,325.6,-0.8,1.8,2471.014,13.28,0.012,270.0
2022-08-01T08:07:03,42.805,6.029,-0.033,-0.002,-0.022,102.0,103.0,101.0,13.4,1505.2,327.1,-0.7,1.9,2471.019,13.28,0.033,266.5
2022-08-01T08:10:03,42.805,6.029,-0.026,-0.032,-0.025,103.0,102.0,103.0,13.3,1505.2,322.0,-0.8,1.8,2471.046,13.28,0.041,219.1
2022-08-01T08:13:03,42.805,6.029,-0.04,-0.021,-0.019,103.0,103.0,102.0,13.4,1505.2,329.6,-0.8,1.8,2471.017,13.28,0.045,242.3
2022-08-01T08:16:03,42.805,6.029,-0.034,-0.007,-0.018,102.0,102.0,101.0,13.4,1505.2,326.1,-0.8,1.8,2470.969,13.28,0.034,258.4
2022-08-01T08:19:03,42.805,6.029,-0.027,-0.018,-0.01,103.0,105.0,101.0,13.3,1505.2,325.5,-0.8,1.8,2470.999,13.28,0.032,236.3
2022-08-01T08:22:03,42.805,6.029,-0.025,-0.012,0.005,102.0,102.0,101.0,13.4,1505.2,321.6,-0.8,1.8,2470.999,13.28,0.027,244.4
2022-08-01T08:25:03,42.805,6.029,-0.013,-0.014,-0.014,102.0,102.0,101.0,13.4,1505.2,331.4,-0.7,1.8,2471.025,13.28,0.019,222.9
2022-08-01T08:28:03,42.805,6.029,-0.037,-0.005,-0.009,103.0,102.0,100.0,13.4,1505.2,327.9,-0.8,1.8,2470.966,13.28,0.037,262.3
2022-08-01T08:31:03,42.805,6.029,-0.027,-0.018,-0.029,101.0,104.0,102.0,13.3,1505.2,325.0,-0.8,1.8,2471.036,13.28,0.032,236.3
2022-08-01T08:34:03,42.805,6.029,-0.025,-0.028,-0.009,103.0,103.0,101.0,13.3,1505.2,318.7,-0.7,1.8,2471.029,13.28,0.037,221.8
2022-08-01T08:37:03,42.805,6.029,-0.061,-0.006,-0.013,103.0,102.0,101.0,13.4,1505.2,326.0,-0.8,1.8,2471.061,13.28,0.061,264.4
2022-08-01T08:40:03,42.805,6.029,-0.029,-0.037,-0.015,102.0,102.0,102.0,13.4,1505.2,318.9,-0.8,1.8,2470.996,13.28,0.047,218.1
2022-08-01T08:43:03,42.805,6.029,-0.032,-0.023,-0.029,103.0,102.0,102.0,13.4,1505.2,331.5,-0.7,1.8,2470.988,13.28,0.039,234.3
2022-08-01T08:46:03,42.805,6.029,-0.048,-0.03,-0.028,103.0,103.0,100.0,13.4,1505.2,329.3,-0.8,1.8,2471.034,13.28,0.056,238.0
2022-08-01T08:49:03,42.805,6.029,-0.03,-0.03,-0.031,103.0,102.0,101.0,13.4,1505.2,321.7,-0.8,1.9,2471.002,13.28,0.042,225.0
2022-08-01T08:52:03,42.805,6.029,-0.025,-0.03,-0.019,102.0,103.0,102.0,13.4,1505.2,326.1,-0.7,1.8,2471.022,13.28,0.039,219.8
2022-08-01T08:55:03,42.805,6.029,-0.039,-0.026,-0.019,103.0,100.0,101.0,13.3,1505.2,322.5,-0.8,1.8,2471.0,13.28,0.046,236.3
2022-08-01T08:58:03,42.805,6.029,-0.033,-0.029,-0.024,102.0,102.0,101.0,13.3,1505.2,328.1,-0.8,1.8,2470.984,13.28,0.043,228.7
2022-08-01T09:04:03,42.805,6.029,-0.038,-0.027,-0.009,103.0,101.0,101.0,13.4,1505.2,332.1,-0.7,1.8,2471.038,13.28,0.046,234.6
2022-08-01T09:07:03,42.805,6.029,-0.037,-0.043,-0.05,101.0,103.0,102.0,13.4,1505.2,328.8,-0.8,1.8,2471.049,13.28,0.056,220.7
2022-08-01T09:10:03,42.805,6.029,-0.04,-0.045,-0.052,102.0,104.0,101.0,13.4,1505.2,325.5,-0.7,1.8,2471.081,13.28,0.06,221.6
2022-08-01T09:13:03,42.805,6.029,-0.02,-0.023,0.007,102.0,103.0,101.0,13.3,1505.2,327.8,-0.8,1.7,2471.045,13.28,0.03,221.0
2022-08-01T09:16:03,42.805,6.029,-0.021,-0.017,-0.039,103.0,102.0,101.0,13.4,1505.2,323.1,-0.7,1.8,2471.036,13.28,0.027,231.0
2022-08-01T09:19:03,42.805,6.029,-0.053,-0.022,-0.027,104.0,102.0,101.0,13.4,1505.2,329.9,-0.7,1.8,2471.021,13.28,0.057,247.5
2022-08-01T09:22:03,42.805,6.029,-0.046,-0.044,-0.021,101.0,102.0,102.0,13.4,1505.2,323.6,-0.8,1.8,2470.99,13.28,0.063,226.3
2022-08-01T09:25:03,42.805,6.029,-0.043,0.007,-0.004,103.0,102.0,101.0,13.4,1505.2,327.7,-0.7,1.8,2471.002,13.28,0.043,279.2
2022-08-01T09:28:03,42.805,6.029,-0.032,-0.023,-0.041,103.0,103.0,101.0,13.4,1505.2,321.6,-0.8,1.8,2471.018,13.28,0.039,234.3
2022-08-01T09:31:03,42.805,6.029,-0.064,-0.024,-0.045,103.0,102.0,101.0,13.4,1505.2,331.8,-0.8,1.8,2470.969,13.28,0.068,249.4
2022-08-01T09:34:03,42.805,6.029,-0.02,-0.026,-0.018,101.0,102.0,102.0,13.4,1505.2,321.9,-0.8,1.8,2471.008,13.28,0.032,217.6
2022-08-01T09:37:03,42.805,6.029,-0.03,-0.028,-0.03,102.0,103.0,101.0,13.4,1505.2,320.6,-0.8,1.8,2471.045,13.28,0.041,227.0
2022-08-01T09:40:03,42.805,6.029,-0.023,-0.026,-0.027,101.0,103.0,102.0,13.4,1505.2,323.0,-0.8,1.8,2470.993,13.28,0.034,221.5
2022-08-01T09:43:03,42.805,6.029,-0.024,-0.022,-0.01,102.0,104.0,101.0,13.3,1505.2,331.5,-0.8,1.8,2471.032,13.28,0.032,227.5
2022-08-01T09:46:03,42.805,6.029,-0.034,-0.016,-0.026,103.0,102.0,100.0,13.4,1505.2,323.2,-0.8,1.8,2471.031,13.28,0.037,244.8
2022-08-01T09:49:03,42.805,6.029,-0.049,-0.016,-0.042,101.0,102.0,101.0,13.4,1505.2,326.9,-0.8,1.8,2471.005,13.28,0.051,251.9